Location: Braden Valley Church
(38.0012°N, 88.6106°W)
Time: 08:15:14
(UTC+00:00)

Cosmos 2228 Rocket - Pass Details

Date: 08 December 2021
Orbit: 618 x 651 km, 82.5° (Epoch: 16 January)

Event Time Altitude Azimuth Distance (km) Brightness Sun altitude
Rises 12:14:20 0° 348° (NNW) 2,946 6.2 -8.6°
Reaches altitude 10° 12:16:36 10° 345° (NNW) 2,038 5.4 -8.2°
Maximum altitude 12:21:03 59° 266° (W) 747 3.2 -7.4°
Drops below altitude 10° 12:25:30 10° 187° (S) 2,040 5.9 -6.6°
Sets 12:27:46 0° 184° (S) 2,949 6.8 -6.2°
